Year,Month,Day,Hour,Minute,Value (Times are PST for temperature in C)
2021,06,28,00,00,25.00
2021,06,28,00,01,25.00
2021,06,28,00,02,25.00
2021,06,28,00,03,24.90
2021,06,28,00,04,24.90
2021,06,28,00,05,24.90
2021,06,28,00,06,24.90
2021,06,28,00,07,24.90
2021,06,28,00,08,24.80
2021,06,28,00,09,24.80
2021,06,28,00,10,24.80
2021,06,28,00,11,24.80
2021,06,28,00,12,24.70
2021,06,28,00,13,24.70
2021,06,28,00,14,24.70
2021,06,28,00,15,24.70
2021,06,28,00,16,24.70
2021,06,28,00,17,24.60
2021,06,28,00,18,24.60
2021,06,28,00,19,24.60
2021,06,28,00,20,24.60
2021,06,28,00,21,24.50
2021,06,28,00,22,24.50
2021,06,28,00,23,24.40
2021,06,28,00,24,24.40
2021,06,28,00,25,24.40
2021,06,28,00,26,24.30
2021,06,28,00,27,24.30
2021,06,28,00,28,24.20
2021,06,28,00,29,24.20
2021,06,28,00,30,24.20
2021,06,28,00,31,24.10
2021,06,28,00,32,24.10
2021,06,28,00,33,24.10
2021,06,28,00,34,24.00
2021,06,28,00,35,24.00
2021,06,28,00,36,24.00
2021,06,28,00,37,24.00
2021,06,28,00,38,23.90
2021,06,28,00,39,23.90
2021,06,28,00,40,23.90
2021,06,28,00,41,23.90
2021,06,28,00,42,23.90
2021,06,28,00,43,23.80
2021,06,28,00,44,23.80
2021,06,28,00,45,23.80
2021,06,28,00,46,23.80
2021,06,28,00,47,23.80
2021,06,28,00,48,23.80
2021,06,28,00,49,23.80
2021,06,28,00,50,23.70
2021,06,28,00,51,23.70
2021,06,28,00,52,23.70
2021,06,28,00,53,23.70
2021,06,28,00,54,23.70
2021,06,28,00,55,23.60
2021,06,28,00,56,23.60
2021,06,28,00,57,23.60
2021,06,28,00,58,23.60
2021,06,28,00,59,23.60
2021,06,28,01,00,23.60
2021,06,28,01,01,23.60
2021,06,28,01,02,23.50
2021,06,28,01,03,23.50
2021,06,28,01,04,23.50
2021,06,28,01,05,23.40
2021,06,28,01,06,23.40
2021,06,28,01,07,23.40
2021,06,28,01,08,23.40
2021,06,28,01,09,23.40
2021,06,28,01,10,23.40
2021,06,28,01,11,23.40
2021,06,28,01,12,23.40
2021,06,28,01,13,23.30
2021,06,28,01,14,23.30
2021,06,28,01,15,23.30
2021,06,28,01,16,23.30
2021,06,28,01,17,23.30
2021,06,28,01,18,23.30
2021,06,28,01,19,23.30
2021,06,28,01,20,23.30
2021,06,28,01,21,23.30
2021,06,28,01,22,23.30
2021,06,28,01,23,23.30
2021,06,28,01,24,23.30
2021,06,28,01,25,23.30
2021,06,28,01,26,23.30
2021,06,28,01,27,23.30
2021,06,28,01,28,23.30
2021,06,28,01,29,23.20
2021,06,28,01,30,23.20
2021,06,28,01,31,23.20
2021,06,28,01,32,23.20
2021,06,28,01,33,23.20
2021,06,28,01,34,23.20
2021,06,28,01,35,23.20
2021,06,28,01,36,23.10
2021,06,28,01,37,23.10
2021,06,28,01,38,23.10
2021,06,28,01,39,23.10
2021,06,28,01,40,23.10
2021,06,28,01,41,23.10
2021,06,28,01,42,23.10
2021,06,28,01,43,23.10
2021,06,28,01,44,23.00
2021,06,28,01,45,23.00
2021,06,28,01,46,23.00
2021,06,28,01,47,23.00
2021,06,28,01,48,23.00
2021,06,28,01,49,23.00
2021,06,28,01,50,23.00
2021,06,28,01,51,23.00
2021,06,28,01,52,23.00
2021,06,28,01,53,23.00
2021,06,28,01,54,23.00
2021,06,28,01,55,23.10
2021,06,28,01,56,23.10
2021,06,28,01,57,23.10
2021,06,28,01,58,23.10
2021,06,28,01,59,23.10
2021,06,28,02,00,23.10
2021,06,28,02,01,23.10
2021,06,28,02,02,23.10
2021,06,28,02,03,23.10
2021,06,28,02,04,23.10
2021,06,28,02,05,23.10
2021,06,28,02,06,23.10
2021,06,28,02,07,23.10
2021,06,28,02,08,23.10
2021,06,28,02,09,23.10
2021,06,28,02,10,23.10
2021,06,28,02,11,23.10
2021,06,28,02,12,23.10
2021,06,28,02,13,23.10
2021,06,28,02,14,23.10
2021,06,28,02,15,23.10
2021,06,28,02,16,23.10
2021,06,28,02,17,23.10
2021,06,28,02,18,23.10
2021,06,28,02,19,23.10
2021,06,28,02,20,23.10
2021,06,28,02,21,23.10
2021,06,28,02,22,23.10
2021,06,28,02,23,23.10
2021,06,28,02,24,23.10
2021,06,28,02,25,23.00
2021,06,28,02,26,23.00
2021,06,28,02,27,23.00
2021,06,28,02,28,23.00
2021,06,28,02,29,22.90
2021,06,28,02,30,22.90
2021,06,28,02,31,22.90
2021,06,28,02,32,22.90
2021,06,28,02,33,22.80
2021,06,28,02,34,22.80
2021,06,28,02,35,22.80
2021,06,28,02,36,22.80
2021,06,28,02,37,22.80
2021,06,28,02,38,22.70
2021,06,28,02,39,22.70
2021,06,28,02,40,22.70
2021,06,28,02,41,22.70
2021,06,28,02,42,22.70
2021,06,28,02,43,22.70
2021,06,28,02,44,22.70
2021,06,28,02,45,22.60
2021,06,28,02,46,22.60
2021,06,28,02,47,22.70
2021,06,28,02,48,22.60
2021,06,28,02,49,22.60
2021,06,28,02,50,22.60
2021,06,28,02,51,22.60
2021,06,28,02,52,22.60
2021,06,28,02,53,22.60
2021,06,28,02,54,22.60
2021,06,28,02,55,22.60
2021,06,28,02,56,22.60
2021,06,28,02,57,22.60
2021,06,28,02,58,22.60
2021,06,28,02,59,22.60
2021,06,28,03,00,22.50
2021,06,28,03,01,22.50
2021,06,28,03,02,22.50
2021,06,28,03,03,22.50
2021,06,28,03,04,22.50
2021,06,28,03,05,22.50
2021,06,28,03,06,22.40
2021,06,28,03,07,22.40
2021,06,28,03,08,22.40
2021,06,28,03,09,22.40
2021,06,28,03,10,22.40
2021,06,28,03,11,22.40
2021,06,28,03,12,22.40
2021,06,28,03,13,22.40
2021,06,28,03,14,22.40
2021,06,28,03,15,22.40
2021,06,28,03,16,22.50
2021,06,28,03,17,22.50
2021,06,28,03,18,22.40
2021,06,28,03,19,22.50
2021,06,28,03,20,22.40
2021,06,28,03,21,22.50
2021,06,28,03,22,22.40
2021,06,28,03,23,22.40
2021,06,28,03,24,22.40
2021,06,28,03,25,22.40
2021,06,28,03,26,22.40
2021,06,28,03,27,22.40
2021,06,28,03,28,22.40
2021,06,28,03,29,22.40
2021,06,28,03,30,22.40
2021,06,28,03,31,22.30
2021,06,28,03,32,22.30
2021,06,28,03,33,22.30
2021,06,28,03,34,22.30
2021,06,28,03,35,22.30
2021,06,28,03,36,22.30
2021,06,28,03,37,22.30
2021,06,28,03,38,22.30
2021,06,28,03,39,22.30
2021,06,28,03,40,22.30
2021,06,28,03,41,22.30
2021,06,28,03,42,22.30
2021,06,28,03,43,22.30
2021,06,28,03,44,22.30
2021,06,28,03,45,22.30
2021,06,28,03,46,22.30
2021,06,28,03,47,22.30
2021,06,28,03,48,22.30
2021,06,28,03,49,22.30
2021,06,28,03,50,22.30
2021,06,28,03,51,22.30
2021,06,28,03,52,22.30
2021,06,28,03,53,22.30
2021,06,28,03,54,22.30
2021,06,28,03,55,22.20
2021,06,28,03,56,22.20
2021,06,28,03,57,22.30
2021,06,28,03,58,22.40
2021,06,28,03,59,22.60
2021,06,28,04,00,22.80
2021,06,28,04,01,22.90
2021,06,28,04,02,22.90
2021,06,28,04,03,22.90
2021,06,28,04,04,22.90
2021,06,28,04,05,22.90
2021,06,28,04,06,22.90
2021,06,28,04,07,22.90
2021,06,28,04,08,22.90
2021,06,28,04,09,23.00
2021,06,28,04,10,23.10
2021,06,28,04,11,23.20
2021,06,28,04,12,23.20
2021,06,28,04,13,23.30
2021,06,28,04,14,23.30
2021,06,28,04,15,23.30
2021,06,28,04,16,23.30
2021,06,28,04,17,23.40
2021,06,28,04,18,23.40
2021,06,28,04,19,23.50
2021,06,28,04,20,23.60
2021,06,28,04,21,23.60
2021,06,28,04,22,23.60
2021,06,28,04,23,23.60
2021,06,28,04,24,23.60
2021,06,28,04,25,23.60
2021,06,28,04,26,23.60
2021,06,28,04,27,23.60
2021,06,28,04,28,23.70
2021,06,28,04,29,23.70
2021,06,28,04,30,23.70
2021,06,28,04,31,23.60
2021,06,28,04,32,23.60
2021,06,28,04,33,23.60
2021,06,28,04,34,23.50
2021,06,28,04,35,23.40
2021,06,28,04,36,23.40
2021,06,28,04,37,23.30
2021,06,28,04,38,23.20
2021,06,28,04,39,23.20
2021,06,28,04,40,23.10
2021,06,28,04,41,23.10
2021,06,28,04,42,23.10
2021,06,28,04,43,23.10
2021,06,28,04,44,23.20
2021,06,28,04,45,23.20
2021,06,28,04,46,23.30
2021,06,28,04,47,23.40
2021,06,28,04,48,23.50
2021,06,28,04,49,23.50
2021,06,28,04,50,23.60
2021,06,28,04,51,23.70
2021,06,28,04,52,23.70
2021,06,28,04,53,23.80
2021,06,28,04,54,23.80
2021,06,28,04,55,23.80
2021,06,28,04,56,23.80
2021,06,28,04,57,23.80
2021,06,28,04,58,23.80
2021,06,28,04,59,23.80
2021,06,28,05,00,23.80
2021,06,28,05,01,23.70
2021,06,28,05,02,23.70
2021,06,28,05,03,23.70
2021,06,28,05,04,23.60
2021,06,28,05,05,23.60
2021,06,28,05,06,23.50
2021,06,28,05,07,23.40
2021,06,28,05,08,23.40
2021,06,28,05,09,23.30
2021,06,28,05,10,23.30
2021,06,28,05,11,23.20
2021,06,28,05,12,23.20
2021,06,28,05,13,23.10
2021,06,28,05,14,23.10
2021,06,28,05,15,23.10
2021,06,28,05,16,23.10
2021,06,28,05,17,23.00
2021,06,28,05,18,23.00
2021,06,28,05,19,22.90
2021,06,28,05,20,22.90
2021,06,28,05,21,22.90
2021,06,28,05,22,22.80
2021,06,28,05,23,22.80
2021,06,28,05,24,22.80
2021,06,28,05,25,22.70
2021,06,28,05,26,22.70
2021,06,28,05,27,22.60
2021,06,28,05,28,22.60
2021,06,28,05,29,22.60
2021,06,28,05,30,22.50
2021,06,28,05,31,22.50
2021,06,28,05,32,22.40
2021,06,28,05,33,22.40
2021,06,28,05,34,22.30
2021,06,28,05,35,22.30
2021,06,28,05,36,22.30
2021,06,28,05,37,22.20
2021,06,28,05,38,22.20
2021,06,28,05,39,22.20
2021,06,28,05,40,22.20
2021,06,28,05,41,22.10
2021,06,28,05,42,22.10
2021,06,28,05,43,22.10
2021,06,28,05,44,22.10
2021,06,28,05,45,22.10
2021,06,28,05,46,22.00
2021,06,28,05,47,22.00
2021,06,28,05,48,22.00
2021,06,28,05,49,22.00
2021,06,28,05,50,22.00
2021,06,28,05,51,22.00
2021,06,28,05,52,21.90
2021,06,28,05,53,21.90
2021,06,28,05,54,21.90
2021,06,28,05,55,21.90
2021,06,28,05,56,21.90
2021,06,28,05,57,21.90
2021,06,28,05,58,21.90
2021,06,28,05,59,21.90
2021,06,28,06,00,21.80
2021,06,28,06,01,21.80
2021,06,28,06,02,21.80
2021,06,28,06,03,21.80
2021,06,28,06,04,21.80
2021,06,28,06,05,21.80
2021,06,28,06,06,21.80
2021,06,28,06,07,21.80
2021,06,28,06,08,21.80
2021,06,28,06,09,21.80
2021,06,28,06,10,21.80
2021,06,28,06,11,21.80
2021,06,28,06,12,21.80
2021,06,28,06,13,21.80
2021,06,28,06,14,21.80
2021,06,28,06,15,21.80
2021,06,28,06,16,21.80
2021,06,28,06,17,21.80
2021,06,28,06,18,21.80
2021,06,28,06,19,21.90
2021,06,28,06,20,21.90
2021,06,28,06,21,21.90
2021,06,28,06,22,21.90
2021,06,28,06,23,21.90
2021,06,28,06,24,21.90
2021,06,28,06,25,21.90
2021,06,28,06,26,21.90
2021,06,28,06,27,21.90
2021,06,28,06,28,21.90
2021,06,28,06,29,22.00
2021,06,28,06,30,22.00
2021,06,28,06,31,22.00
2021,06,28,06,32,22.00
2021,06,28,06,33,22.00
2021,06,28,06,34,22.10
2021,06,28,06,35,22.10
2021,06,28,06,36,22.10
2021,06,28,06,37,22.10
2021,06,28,06,38,22.10
2021,06,28,06,39,22.20
2021,06,28,06,40,22.20
2021,06,28,06,41,22.20
2021,06,28,06,42,22.20
2021,06,28,06,43,22.20
2021,06,28,06,44,22.30
2021,06,28,06,45,22.30
2021,06,28,06,46,22.30
2021,06,28,06,47,22.40
2021,06,28,06,48,22.40
2021,06,28,06,49,22.50
2021,06,28,06,50,22.50
2021,06,28,06,51,22.60
2021,06,28,06,52,22.60
2021,06,28,06,53,22.60
2021,06,28,06,54,22.70
2021,06,28,06,55,22.70
2021,06,28,06,56,22.80
2021,06,28,06,57,22.80
2021,06,28,06,58,22.90
2021,06,28,06,59,22.90
2021,06,28,07,00,23.00
2021,06,28,07,01,23.10
2021,06,28,07,02,23.20
2021,06,28,07,03,23.20
2021,06,28,07,04,23.30
2021,06,28,07,05,23.40
2021,06,28,07,06,23.40
2021,06,28,07,07,23.50
2021,06,28,07,08,23.60
2021,06,28,07,09,23.70
2021,06,28,07,10,23.70
2021,06,28,07,11,23.80
2021,06,28,07,12,23.90
2021,06,28,07,13,24.00
2021,06,28,07,14,24.10
2021,06,28,07,15,24.30
2021,06,28,07,16,24.40
2021,06,28,07,17,24.50
2021,06,28,07,18,24.60
2021,06,28,07,19,24.60
2021,06,28,07,20,24.70
2021,06,28,07,21,24.80
2021,06,28,07,22,24.80
2021,06,28,07,23,24.90
2021,06,28,07,24,25.00
2021,06,28,07,25,25.00
2021,06,28,07,26,25.10
2021,06,28,07,27,25.20
2021,06,28,07,28,25.30
2021,06,28,07,29,25.30
2021,06,28,07,30,25.40
2021,06,28,07,31,25.50
2021,06,28,07,32,25.60
2021,06,28,07,33,25.70
2021,06,28,07,34,25.90
2021,06,28,07,35,26.00
2021,06,28,07,36,26.10
2021,06,28,07,37,26.20
2021,06,28,07,38,26.30
2021,06,28,07,39,26.30
2021,06,28,07,40,26.40
2021,06,28,07,41,26.50
2021,06,28,07,42,26.50
2021,06,28,07,43,26.60
2021,06,28,07,44,26.70
2021,06,28,07,45,26.70
2021,06,28,07,46,26.70
2021,06,28,07,47,26.80
2021,06,28,07,48,26.80
2021,06,28,07,49,26.80
2021,06,28,07,50,26.90
2021,06,28,07,51,26.90
2021,06,28,07,52,26.90
2021,06,28,07,53,26.90
2021,06,28,07,54,27.00
2021,06,28,07,55,27.10
2021,06,28,07,56,27.10
2021,06,28,07,57,27.10
2021,06,28,07,58,27.20
2021,06,28,07,59,27.20
2021,06,28,08,00,27.20
2021,06,28,08,01,27.30
2021,06,28,08,02,27.30
2021,06,28,08,03,27.30
2021,06,28,08,04,27.40
2021,06,28,08,05,27.50
2021,06,28,08,06,27.50
2021,06,28,08,07,27.60
2021,06,28,08,08,27.70
2021,06,28,08,09,27.80
2021,06,28,08,10,27.80
2021,06,28,08,11,27.90
2021,06,28,08,12,28.00
2021,06,28,08,13,28.10
2021,06,28,08,14,28.20
2021,06,28,08,15,28.20
2021,06,28,08,16,28.30
2021,06,28,08,17,28.40
2021,06,28,08,18,28.50
2021,06,28,08,19,28.60
2021,06,28,08,20,28.70
2021,06,28,08,21,28.80
2021,06,28,08,22,28.90
2021,06,28,08,23,28.90
2021,06,28,08,24,29.00
2021,06,28,08,25,29.10
2021,06,28,08,26,29.10
2021,06,28,08,27,29.10
2021,06,28,08,28,29.20
2021,06,28,08,29,29.20
2021,06,28,08,30,29.30
2021,06,28,08,31,29.40
2021,06,28,08,32,29.40
2021,06,28,08,33,29.50
2021,06,28,08,34,29.60
2021,06,28,08,35,29.60
2021,06,28,08,36,29.60
2021,06,28,08,37,29.70
2021,06,28,08,38,29.70
2021,06,28,08,39,29.70
2021,06,28,08,40,29.70
2021,06,28,08,41,29.70
2021,06,28,08,42,29.70
2021,06,28,08,43,29.70
2021,06,28,08,44,29.70
2021,06,28,08,45,29.70
2021,06,28,08,46,29.70
2021,06,28,08,47,29.70
2021,06,28,08,48,29.70
2021,06,28,08,49,29.70
2021,06,28,08,50,29.80
2021,06,28,08,51,29.80
2021,06,28,08,52,29.80
2021,06,28,08,53,29.80
2021,06,28,08,54,29.80
2021,06,28,08,55,29.80
2021,06,28,08,56,29.90
2021,06,28,08,57,29.90
2021,06,28,08,58,29.90
2021,06,28,08,59,29.90
2021,06,28,09,00,29.90
2021,06,28,09,01,30.00
2021,06,28,09,02,30.00
2021,06,28,09,03,30.10
2021,06,28,09,04,30.10
2021,06,28,09,05,30.10
2021,06,28,09,06,30.10
2021,06,28,09,07,30.20
2021,06,28,09,08,30.20
2021,06,28,09,09,30.20
2021,06,28,09,10,30.30
2021,06,28,09,11,30.30
2021,06,28,09,12,30.40
2021,06,28,09,13,30.40
2021,06,28,09,14,30.40
2021,06,28,09,15,30.50
2021,06,28,09,16,30.50
2021,06,28,09,17,30.60
2021,06,28,09,18,30.60
2021,06,28,09,19,30.70
2021,06,28,09,20,30.70
2021,06,28,09,21,30.70
2021,06,28,09,22,30.80
2021,06,28,09,23,30.80
2021,06,28,09,24,30.80
2021,06,28,09,25,30.90
2021,06,28,09,26,30.90
2021,06,28,09,27,30.90
2021,06,28,09,28,30.90
2021,06,28,09,29,30.90
2021,06,28,09,30,31.00
2021,06,28,09,31,31.00
2021,06,28,09,32,31.00
2021,06,28,09,33,31.00
2021,06,28,09,34,31.10
2021,06,28,09,35,31.10
2021,06,28,09,36,31.10
2021,06,28,09,37,31.10
2021,06,28,09,38,31.20
2021,06,28,09,39,31.20
2021,06,28,09,40,31.20
2021,06,28,09,41,31.30
2021,06,28,09,42,31.30
2021,06,28,09,43,31.30
2021,06,28,09,44,31.40
2021,06,28,09,45,31.40
2021,06,28,09,46,31.40
2021,06,28,09,47,31.40
2021,06,28,09,48,31.50
2021,06,28,09,49,31.50
2021,06,28,09,50,31.60
2021,06,28,09,51,31.60
2021,06,28,09,52,31.60
2021,06,28,09,53,31.60
2021,06,28,09,54,31.60
2021,06,28,09,55,31.70
2021,06,28,09,56,31.70
2021,06,28,09,57,31.70
2021,06,28,09,58,31.70
2021,06,28,09,59,31.80
2021,06,28,10,00,31.90
2021,06,28,10,01,31.90
2021,06,28,10,02,31.90
2021,06,28,10,03,31.90
2021,06,28,10,04,31.90
2021,06,28,10,05,31.90
2021,06,28,10,06,31.90
2021,06,28,10,07,31.90
2021,06,28,10,08,31.90
2021,06,28,10,09,32.00
2021,06,28,10,10,32.00
2021,06,28,10,11,32.10
2021,06,28,10,12,32.10
2021,06,28,10,13,32.20
2021,06,28,10,14,32.30
2021,06,28,10,15,32.30
2021,06,28,10,16,32.40
2021,06,28,10,17,32.40
2021,06,28,10,18,32.40
2021,06,28,10,19,32.50
2021,06,28,10,20,32.50
2021,06,28,10,21,32.50
2021,06,28,10,22,32.50
2021,06,28,10,23,32.50
2021,06,28,10,24,32.60
2021,06,28,10,25,32.60
2021,06,28,10,26,32.60
2021,06,28,10,27,32.70
2021,06,28,10,28,32.70
2021,06,28,10,29,32.70
2021,06,28,10,30,32.80
2021,06,28,10,31,32.90
2021,06,28,10,32,32.90
2021,06,28,10,33,33.00
2021,06,28,10,34,33.10
2021,06,28,10,35,33.10
2021,06,28,10,36,33.20
2021,06,28,10,37,33.20
2021,06,28,10,38,33.20
2021,06,28,10,39,33.20
2021,06,28,10,40,33.20
2021,06,28,10,41,33.30
2021,06,28,10,42,33.30
2021,06,28,10,43,33.40
2021,06,28,10,44,33.50
2021,06,28,10,45,33.50
2021,06,28,10,46,33.60
2021,06,28,10,47,33.60
2021,06,28,10,48,33.70
2021,06,28,10,49,33.80
2021,06,28,10,50,33.90
2021,06,28,10,51,33.90
2021,06,28,10,52,34.00
2021,06,28,10,53,34.10
2021,06,28,10,54,34.10
2021,06,28,10,55,34.10
2021,06,28,10,56,34.10
2021,06,28,10,57,34.10
2021,06,28,10,58,34.10
2021,06,28,10,59,34.20
2021,06,28,11,00,34.20
2021,06,28,11,01,34.20
2021,06,28,11,02,34.30
2021,06,28,11,03,34.30
2021,06,28,11,04,34.30
2021,06,28,11,05,34.30
2021,06,28,11,06,34.30
2021,06,28,11,07,34.30
2021,06,28,11,08,34.30
2021,06,28,11,09,34.30
2021,06,28,11,10,34.30
2021,06,28,11,11,34.40
2021,06,28,11,12,34.50
2021,06,28,11,13,34.50
2021,06,28,11,14,34.60
2021,06,28,11,15,34.70
2021,06,28,11,16,34.70
2021,06,28,11,17,34.70
2021,06,28,11,18,34.80
2021,06,28,11,19,34.80
2021,06,28,11,20,34.90
2021,06,28,11,21,34.90
2021,06,28,11,22,35.00
2021,06,28,11,23,35.00
2021,06,28,11,24,35.00
2021,06,28,11,25,35.00
2021,06,28,11,26,35.00
2021,06,28,11,27,35.00
2021,06,28,11,28,35.10
2021,06,28,11,29,35.10
2021,06,28,11,30,35.10
2021,06,28,11,31,35.00
2021,06,28,11,32,35.00
2021,06,28,11,33,34.90
2021,06,28,11,34,34.90
2021,06,28,11,35,34.90
2021,06,28,11,36,34.90
2021,06,28,11,37,34.90
2021,06,28,11,38,34.90
2021,06,28,11,39,34.90
2021,06,28,11,40,35.00
2021,06,28,11,41,35.00
2021,06,28,11,42,35.00
2021,06,28,11,43,35.00
2021,06,28,11,44,35.00
2021,06,28,11,45,34.90
2021,06,28,11,46,34.90
2021,06,28,11,47,34.90
2021,06,28,11,48,34.90
2021,06,28,11,49,34.90
2021,06,28,11,50,34.90
2021,06,28,11,51,35.00
2021,06,28,11,52,35.00
2021,06,28,11,53,35.00
2021,06,28,11,54,35.10
2021,06,28,11,55,35.10
2021,06,28,11,56,35.10
2021,06,28,11,57,35.20
2021,06,28,11,58,35.20
2021,06,28,11,59,35.40
2021,06,28,12,00,35.50
2021,06,28,12,01,35.50
2021,06,28,12,02,35.60
2021,06,28,12,03,35.70
2021,06,28,12,04,35.70
2021,06,28,12,05,35.80
2021,06,28,12,06,35.80
2021,06,28,12,07,35.90
2021,06,28,12,08,35.90
2021,06,28,12,09,35.90
2021,06,28,12,10,36.00
2021,06,28,12,11,36.00
2021,06,28,12,12,36.10
2021,06,28,12,13,36.00
2021,06,28,12,14,36.00
2021,06,28,12,15,36.00
2021,06,28,12,16,36.10
2021,06,28,12,17,36.20
2021,06,28,12,18,36.30
2021,06,28,12,19,36.40
2021,06,28,12,20,36.50
2021,06,28,12,21,36.50
2021,06,28,12,22,36.60
2021,06,28,12,23,36.60
2021,06,28,12,24,36.70
2021,06,28,12,25,36.70
2021,06,28,12,26,36.80
2021,06,28,12,27,36.90
2021,06,28,12,28,36.90
2021,06,28,12,29,36.90
2021,06,28,12,30,36.90
2021,06,28,12,31,36.90
2021,06,28,12,32,36.90
2021,06,28,12,33,36.80
2021,06,28,12,34,36.80
2021,06,28,12,35,36.80
2021,06,28,12,36,36.80
2021,06,28,12,37,36.90
2021,06,28,12,38,36.90
2021,06,28,12,39,37.00
2021,06,28,12,40,37.10
2021,06,28,12,41,37.10
2021,06,28,12,42,37.20
2021,06,28,12,43,37.20
2021,06,28,12,44,37.20
2021,06,28,12,45,37.30
2021,06,28,12,46,37.30
2021,06,28,12,47,37.20
2021,06,28,12,48,37.10
2021,06,28,12,49,37.00
2021,06,28,12,50,36.90
2021,06,28,12,51,36.80
2021,06,28,12,52,36.80
2021,06,28,12,53,36.80
2021,06,28,12,54,36.80
2021,06,28,12,55,36.90
2021,06,28,12,56,36.90
2021,06,28,12,57,36.90
2021,06,28,12,58,37.00
2021,06,28,12,59,37.10
2021,06,28,13,00,37.10
2021,06,28,13,01,37.10
2021,06,28,13,02,37.00
2021,06,28,13,03,37.00
2021,06,28,13,04,37.00
2021,06,28,13,05,36.90
2021,06,28,13,06,36.90
2021,06,28,13,07,37.00
2021,06,28,13,08,37.00
2021,06,28,13,09,37.10
2021,06,28,13,10,37.20
2021,06,28,13,11,37.20
2021,06,28,13,12,37.30
2021,06,28,13,13,37.40
2021,06,28,13,14,37.40
2021,06,28,13,15,37.40
2021,06,28,13,16,37.40
2021,06,28,13,17,37.40
2021,06,28,13,18,37.40
2021,06,28,13,19,37.40
2021,06,28,13,20,37.40
2021,06,28,13,21,37.40
2021,06,28,13,22,37.40
2021,06,28,13,23,37.40
2021,06,28,13,24,37.50
2021,06,28,13,25,37.60
2021,06,28,13,26,37.70
2021,06,28,13,27,37.80
2021,06,28,13,28,37.90
2021,06,28,13,29,37.90
2021,06,28,13,30,37.90
2021,06,28,13,31,37.80
2021,06,28,13,32,37.80
2021,06,28,13,33,37.80
2021,06,28,13,34,37.80
2021,06,28,13,35,37.90
2021,06,28,13,36,37.90
2021,06,28,13,37,38.00
2021,06,28,13,38,37.90
2021,06,28,13,39,37.90
2021,06,28,13,40,37.90
2021,06,28,13,41,37.90
2021,06,28,13,42,37.80
2021,06,28,13,43,37.80
2021,06,28,13,44,37.80
2021,06,28,13,45,37.70
2021,06,28,13,46,37.70
2021,06,28,13,47,37.70
2021,06,28,13,48,37.80
2021,06,28,13,49,37.80
2021,06,28,13,50,37.80
2021,06,28,13,51,37.80
2021,06,28,13,52,37.80
2021,06,28,13,53,37.80
2021,06,28,13,54,37.80
2021,06,28,13,55,37.90
2021,06,28,13,56,38.00
2021,06,28,13,57,38.10
2021,06,28,13,58,38.10
2021,06,28,13,59,38.10
2021,06,28,14,00,38.10
2021,06,28,14,01,38.00
2021,06,28,14,02,37.90
2021,06,28,14,03,37.80
2021,06,28,14,04,37.70
2021,06,28,14,05,37.70
2021,06,28,14,06,37.60
2021,06,28,14,07,37.60
2021,06,28,14,08,37.60
2021,06,28,14,09,37.60
2021,06,28,14,10,37.60
2021,06,28,14,11,37.60
2021,06,28,14,12,37.60
2021,06,28,14,13,37.60
2021,06,28,14,14,37.70
2021,06,28,14,15,37.70
2021,06,28,14,16,37.70
2021,06,28,14,17,37.70
2021,06,28,14,18,37.70
2021,06,28,14,19,37.70
2021,06,28,14,20,37.70
2021,06,28,14,21,37.70
2021,06,28,14,22,37.70
2021,06,28,14,23,37.70
2021,06,28,14,24,37.70
2021,06,28,14,25,37.70
2021,06,28,14,26,37.80
2021,06,28,14,27,37.80
2021,06,28,14,28,37.80
2021,06,28,14,29,37.80
2021,06,28,14,30,37.80
2021,06,28,14,31,37.90
2021,06,28,14,32,37.80
2021,06,28,14,33,37.80
2021,06,28,14,34,37.80
2021,06,28,14,35,37.80
2021,06,28,14,36,37.80
2021,06,28,14,37,37.80
2021,06,28,14,38,37.90
2021,06,28,14,39,37.90
2021,06,28,14,40,38.00
2021,06,28,14,41,38.10
2021,06,28,14,42,38.10
2021,06,28,14,43,38.20
2021,06,28,14,44,38.30
2021,06,28,14,45,38.30
2021,06,28,14,46,38.40
2021,06,28,14,47,38.40
2021,06,28,14,48,38.40
2021,06,28,14,49,38.50
2021,06,28,14,50,38.60
2021,06,28,14,51,38.60
2021,06,28,14,52,38.60
2021,06,28,14,53,38.60
2021,06,28,14,54,38.70
2021,06,28,14,55,38.70
2021,06,28,14,56,38.60
2021,06,28,14,57,38.60
2021,06,28,14,58,38.60
2021,06,28,14,59,38.60
2021,06,28,15,00,38.60
2021,06,28,15,01,38.60
2021,06,28,15,02,38.50
2021,06,28,15,03,38.40
2021,06,28,15,04,38.40
2021,06,28,15,05,38.30
2021,06,28,15,06,38.30
2021,06,28,15,07,38.40
2021,06,28,15,08,38.40
2021,06,28,15,09,38.50
2021,06,28,15,10,38.60
2021,06,28,15,11,38.70
2021,06,28,15,12,38.80
2021,06,28,15,13,38.80
2021,06,28,15,14,38.80
2021,06,28,15,15,38.80
2021,06,28,15,16,38.80
2021,06,28,15,17,38.70
2021,06,28,15,18,38.70
2021,06,28,15,19,38.70
2021,06,28,15,20,38.70
2021,06,28,15,21,38.80
2021,06,28,15,22,38.80
2021,06,28,15,23,38.80
2021,06,28,15,24,38.80
2021,06,28,15,25,38.80
2021,06,28,15,26,38.80
2021,06,28,15,27,38.90
2021,06,28,15,28,38.90
2021,06,28,15,29,39.00
2021,06,28,15,30,39.00
2021,06,28,15,31,39.10
2021,06,28,15,32,39.20
2021,06,28,15,33,39.20
2021,06,28,15,34,39.30
2021,06,28,15,35,39.30
2021,06,28,15,36,39.40
2021,06,28,15,37,39.40
2021,06,28,15,38,39.40
2021,06,28,15,39,39.40
2021,06,28,15,40,39.50
2021,06,28,15,41,39.60
2021,06,28,15,42,39.70
2021,06,28,15,43,39.70
2021,06,28,15,44,39.70
2021,06,28,15,45,39.80
2021,06,28,15,46,39.80
2021,06,28,15,47,39.80
2021,06,28,15,48,39.80
2021,06,28,15,49,39.80
2021,06,28,15,50,39.80
2021,06,28,15,51,39.80
2021,06,28,15,52,39.70
2021,06,28,15,53,39.70
2021,06,28,15,54,39.70
2021,06,28,15,55,39.80
2021,06,28,15,56,39.80
2021,06,28,15,57,39.80
2021,06,28,15,58,39.70
2021,06,28,15,59,39.70
2021,06,28,16,00,39.70
2021,06,28,16,01,39.60
2021,06,28,16,02,39.60
2021,06,28,16,03,39.60
2021,06,28,16,04,39.60
2021,06,28,16,05,39.60
2021,06,28,16,06,39.60
2021,06,28,16,07,39.60
2021,06,28,16,08,39.60
2021,06,28,16,09,39.50
2021,06,28,16,10,39.50
2021,06,28,16,11,39.50
2021,06,28,16,12,39.40
2021,06,28,16,13,39.40
2021,06,28,16,14,39.30
2021,06,28,16,15,39.30
2021,06,28,16,16,39.30
2021,06,28,16,17,39.30
2021,06,28,16,18,39.30
2021,06,28,16,19,39.30
2021,06,28,16,20,39.20
2021,06,28,16,21,39.30
2021,06,28,16,22,39.30
2021,06,28,16,23,39.30
2021,06,28,16,24,39.30
2021,06,28,16,25,39.40
2021,06,28,16,26,39.40
2021,06,28,16,27,39.40
2021,06,28,16,28,39.40
2021,06,28,16,29,39.50
2021,06,28,16,30,39.50
2021,06,28,16,31,39.50
2021,06,28,16,32,39.60
2021,06,28,16,33,39.70
2021,06,28,16,34,39.70
2021,06,28,16,35,39.70
2021,06,28,16,36,39.80
2021,06,28,16,37,39.80
2021,06,28,16,38,39.80
2021,06,28,16,39,39.90
2021,06,28,16,40,39.90
2021,06,28,16,41,39.90
2021,06,28,16,42,40.00
2021,06,28,16,43,40.10
2021,06,28,16,44,40.10
2021,06,28,16,45,40.10
2021,06,28,16,46,40.10
2021,06,28,16,47,40.10
2021,06,28,16,48,40.10
2021,06,28,16,49,40.10
2021,06,28,16,50,40.00
2021,06,28,16,51,39.90
2021,06,28,16,52,39.90
2021,06,28,16,53,39.90
2021,06,28,16,54,39.90
2021,06,28,16,55,40.00
2021,06,28,16,56,40.00
2021,06,28,16,57,40.00
2021,06,28,16,58,39.90
2021,06,28,16,59,39.90
2021,06,28,17,00,39.90
2021,06,28,17,01,39.80
2021,06,28,17,02,39.80
2021,06,28,17,03,39.80
2021,06,28,17,04,39.70
2021,06,28,17,05,39.70
2021,06,28,17,06,39.70
2021,06,28,17,07,39.80
2021,06,28,17,08,39.80
2021,06,28,17,09,39.80
2021,06,28,17,10,39.90
2021,06,28,17,11,40.00
2021,06,28,17,12,40.10
2021,06,28,17,13,40.10
2021,06,28,17,14,40.20
2021,06,28,17,15,40.30
2021,06,28,17,16,40.40
2021,06,28,17,17,40.40
2021,06,28,17,18,40.50
2021,06,28,17,19,40.50